User: anonymous   Login
Location: Unspecified
(0.0000°N, 0.0000°E)
Time: 17:37:41
(UTC+02:00)
Language:

AO-7 - Orbit

View from above orbital plane
View from above orbital plane
View from above satellite
View from above satellite

Ground track
Ground track

The orbit data is extracted from the following two-line orbital elements,

1 07530U 74089B   16269.46254690 -.00000026  00000-0  11003-3 0  9990
2 07530 101.5877 237.8215 0012315 114.6399 359.4375 12.53623274915689
Epoch (UTC): 25 September 2016 11:06:04
Eccentricity: 0.0012315
inclination: 101.5877°
perigee height: 1440 km
apogee height: 1459 km
right ascension of ascending node: 237.8215°
argument of perigee: 114.6399°
revolutions per day: 12.53623274
mean anomaly at epoch: 359.4375°
orbit number at epoch: 91568

The dashed part of the orbit path shows where the satellite is in the earth's shadow,  

DLR